Date String (YYYY-MM-DD hh:mm:ss) UTC,Instrument flags,absolute air pressure of the measurement (hPa),sample flow rate (lpm),inlet stack bypass flow (lpm),air temperature of the measurement (°C),ambient temperature measured by the external sensor (°C),aerosol sample conditioner tube jacket temperature (°C),OPC LED temperature (°C),internal box temperature (°C),relative humidity of the measurement (%),span deviation,mass concentration of particles derived from Lorenz-Mie calculation of OPC scattering (μg/m³),mass concentration of particles derived from Lorenz-Mie calculation of OPC scattering (μg/m³),mass concentration of particles derived from Lorenz-Mie calculation of OPC scattering (μg/m³)
DateTimeUTC,F1_M11,P_M11,Q1_M11,Q2_M11,T1_M11,T2_M11,T3_M11,T4_M11,T5_M11,U1_M11,ZSPAN_M11,X0_M11,X2_M11,X1_M11
2023-06-21 21:00:00,SystemResetWarning,0831.3,5.02,000.00,030.6,024.9,000.0,038.8,031.3,33.4,0001.1,0022.16,0011.03,0009.63
2023-06-21 21:01:00,SystemResetWarning,0831.2,4.97,000.00,030.6,025.3,000.0,038.8,031.1,32.9,0001.1,0021.14,0010.99,0009.64
2023-06-21 21:02:00,SystemResetWarning,0831.3,5.02,000.00,030.6,025.8,000.0,038.8,031.2,33.1,0001.2,0020.46,0010.91,0009.63
2023-06-21 21:03:00,SystemResetWarning,0831.3,4.99,000.00,030.6,026.3,000.0,038.8,031.2,32.7,0001.0,0020.09,0010.83,0009.59
2023-06-21 21:04:00,SystemResetWarning,0831.3,5.00,000.00,030.6,026.8,000.0,038.8,031.3,33.0,0001.0,0019.53,0010.75,0009.54
2023-06-21 21:05:00,SystemResetWarning,0831.3,5.00,000.00,030.6,027.2,000.0,038.8,031.3,33.0,0001.1,0018.77,0010.63,0009.48
2023-06-21 21:06:00,SystemResetWarning,0831.2,5.01,000.00,030.6,027.5,000.0,038.8,031.4,32.7,0001.4,0019.20,0010.60,0009.45
2023-06-21 21:07:00,SystemResetWarning,0831.3,5.01,000.00,030.6,027.8,000.0,038.9,031.4,32.2,0001.2,0019.31,0010.62,0009.44
2023-06-21 21:08:00,SystemResetWarning,0831.2,4.99,000.00,030.7,027.6,000.0,038.9,031.5,31.9,0001.1,0019.27,0010.57,0009.40
2023-06-21 21:09:00,SystemResetWarning,0831.3,4.99,000.00,030.7,025.9,000.0,038.8,031.4,32.2,0001.2,0018.96,0010.56,0009.34
2023-06-21 21:10:00,SystemResetWarning,0831.2,5.00,000.00,030.6,024.8,000.0,038.8,031.4,31.9,0001.5,0017.72,0010.48,0009.28
2023-06-21 21:11:00,SystemResetWarning,0831.2,5.01,000.00,030.6,024.8,000.0,038.7,031.2,32.1,0001.8,0017.25,0010.40,0009.24
2023-06-21 21:12:00,SystemResetWarning,0831.2,5.01,000.00,030.4,025.2,000.0,038.7,030.9,33.1,0001.8,0017.17,0010.41,0009.18
2023-06-21 21:13:00,SystemResetWarning,0831.2,4.98,000.00,030.4,025.7,000.0,038.7,030.9,34.9,0001.6,0017.04,0010.47,0009.15
2023-06-21 21:14:00,SystemResetWarning,0831.2,5.02,000.00,030.4,026.2,000.0,038.7,031.1,34.5,0002.0,0017.69,0010.48,0009.14
2023-06-21 21:15:00,SystemResetWarning,0831.2,4.98,000.00,030.4,026.6,000.0,038.7,031.2,33.9,0001.9,0018.45,0010.47,0009.14
2023-06-21 21:16:00,SystemResetWarning,0831.2,5.00,000.00,030.4,027.1,000.0,038.7,031.3,34.3,0001.7,0018.87,0010.49,0009.14
2023-06-21 21:17:00,SystemResetWarning,0831.2,5.02,000.00,030.4,027.4,000.0,038.7,031.4,34.2,0002.0,0018.34,0010.46,0009.12
2023-06-21 21:18:00,SystemResetWarning,0831.2,4.97,000.00,030.4,027.7,000.0,038.7,031.4,34.6,0002.7,0018.12,0010.44,0009.10
2023-06-21 21:19:00,SystemResetWarning,0831.2,5.04,000.00,030.5,028.0,000.0,038.8,031.5,33.7,0003.0,0017.93,0010.38,0009.08
2023-06-21 21:20:00,SystemResetWarning,0831.2,4.96,000.00,030.6,027.4,000.0,038.7,031.6,32.5,0003.0,0017.39,0010.31,0009.09
2023-06-21 21:21:00,SystemResetWarning,0831.2,5.00,000.00,030.7,025.7,000.0,038.7,031.4,32.6,0002.9,0017.88,0010.40,0009.10
2023-06-21 21:22:00,SystemResetWarning,0831.1,5.00,000.00,030.6,024.9,000.0,038.6,031.3,32.7,0002.9,0018.86,0010.42,0009.07
2023-06-21 21:23:00,SystemResetWarning,0831.1,5.01,000.00,030.6,025.0,000.0,038.6,031.1,33.1,0002.8,0020.10,0010.40,0009.08
2023-06-21 21:24:00,SystemResetWarning,0831.1,5.01,000.00,030.4,025.4,000.0,038.6,031.0,33.7,0002.8,0020.85,0010.37,0009.09
2023-06-21 21:25:00,SystemResetWarning,0831.0,4.98,000.00,030.4,025.9,000.0,038.7,031.0,33.6,0002.8,0020.76,0010.36,0009.10
2023-06-21 21:26:00,SystemResetWarning,0831.0,5.00,000.00,030.3,026.4,000.0,038.7,031.1,34.0,0003.0,0021.43,0010.41,0009.12
2023-06-21 21:27:00,SystemResetWarning,0831.1,4.99,000.00,030.3,026.8,000.0,038.7,031.2,33.5,0003.1,0021.64,0010.49,0009.13
2023-06-21 21:28:00,SystemResetWarning,0831.1,4.99,000.00,030.4,027.2,000.0,038.7,031.3,32.8,0003.0,0021.67,0010.55,0009.15
2023-06-21 21:29:00,SystemResetWarning,0831.0,5.00,000.00,030.4,027.6,000.0,038.7,031.3,32.4,0002.9,0021.69,0010.56,0009.18
2023-06-21 21:30:00,SystemResetWarning,0831.0,5.01,000.00,030.4,027.8,000.0,038.7,031.4,32.6,0002.6,0022.09,0010.66,0009.20
2023-06-21 21:31:00,SystemResetWarning,0830.9,4.98,000.00,030.4,026.7,000.0,038.7,031.3,33.6,0002.4,0022.15,0010.70,0009.20
2023-06-21 21:32:00,SystemResetWarning,0830.9,5.00,000.00,030.4,025.2,000.0,038.6,031.2,33.0,0002.3,0021.72,0010.59,0009.19
2023-06-21 21:33:00,SystemResetWarning,0830.8,5.01,000.00,030.3,024.8,000.0,038.6,031.2,33.4,0001.7,0021.24,0010.56,0009.21
2023-06-21 21:34:00,SystemResetWarning,0830.8,5.01,000.00,030.2,025.1,000.0,038.5,030.9,33.0,0001.4,0020.22,0010.55,0009.22
2023-06-21 21:35:00,SystemResetWarning,0830.7,5.01,000.00,030.1,025.5,000.0,038.5,030.9,32.7,0001.5,0019.22,0010.54,0009.21
2023-06-21 21:36:00,SystemResetWarning,0830.6,5.00,000.00,030.0,026.0,000.0,038.5,031.0,33.9,0001.4,0019.36,0010.55,0009.21
2023-06-21 21:37:00,SystemResetWarning,0830.6,5.00,000.00,030.0,026.5,000.0,038.5,031.1,34.0,0001.1,0018.23,0010.55,0009.20
2023-06-21 21:38:00,SystemResetWarning,0830.6,4.98,000.00,030.0,027.0,000.0,038.5,031.2,34.0,0001.4,0017.55,0010.51,0009.17
2023-06-21 21:39:00,SystemResetWarning,0830.6,4.99,000.00,030.0,027.3,000.0,038.5,031.3,32.6,0001.7,0017.53,0010.48,0009.15
2023-06-21 21:40:00,SystemResetWarning,0830.5,5.00,000.00,030.1,027.6,000.0,038.5,031.3,32.2,0001.4,0017.86,0010.39,0009.12
2023-06-21 21:41:00,SystemResetWarning,0830.6,5.01,000.00,030.1,027.9,000.0,038.5,031.4,32.4,0001.2,0018.08,0010.29,0009.08
2023-06-21 21:42:00,SystemResetWarning,0830.4,4.99,000.00,030.1,027.2,000.0,038.5,031.4,33.1,0001.3,0018.32,0010.25,0009.07
2023-06-21 21:43:00,SystemResetWarning,0830.4,4.99,000.00,030.1,025.4,000.0,038.4,031.2,33.3,0001.6,0018.99,0010.30,0009.06
2023-06-21 21:44:00,SystemResetWarning,0830.5,5.00,000.00,030.1,024.9,000.0,038.4,031.1,33.0,0001.8,0019.40,0010.26,0009.05
2023-06-21 21:45:00,SystemResetWarning,0830.5,5.01,000.00,030.0,025.1,000.0,038.3,031.0,34.3,0002.1,0019.30,0010.25,0009.03
2023-06-21 21:46:00,SystemResetWarning,0830.4,5.00,000.00,029.9,025.5,000.0,038.3,030.8,33.7,0002.0,0020.13,0010.26,0009.04
2023-06-21 21:47:00,SystemResetWarning,0830.5,4.99,000.00,029.8,026.0,000.0,038.3,031.0,33.0,0001.9,0020.98,0010.20,0009.02
2023-06-21 21:48:00,SystemResetWarning,0830.5,5.00,000.00,029.8,026.5,000.0,038.3,031.1,33.0,0001.9,0021.03,0010.18,0008.98
2023-06-21 21:49:00,SystemResetWarning,0830.4,5.01,000.00,029.8,027.0,000.0,038.3,031.2,34.3,0001.9,0021.02,0010.15,0008.97
2023-06-21 21:50:00,SystemResetWarning,0830.5,5.01,000.00,029.9,027.3,000.0,038.3,031.2,33.8,0001.8,0021.00,0010.12,0008.94
2023-06-21 21:51:00,SystemResetWarning,0830.6,4.99,000.00,029.9,027.7,000.0,038.3,031.3,33.1,0001.9,0021.17,0010.12,0008.93
2023-06-21 21:52:00,SystemResetWarning,0830.6,4.99,000.00,030.0,027.8,000.0,038.4,031.3,33.2,0002.0,0020.84,0010.09,0008.91
2023-06-21 21:53:00,SystemResetWarning,0830.5,4.99,000.00,030.0,026.5,000.0,038.3,031.3,33.9,0002.0,0020.82,0010.02,0008.87
2023-06-21 21:54:00,SystemResetWarning,0830.5,5.02,000.00,029.9,025.0,000.0,038.3,031.1,32.6,0001.8,0020.44,0009.96,0008.86
2023-06-21 21:55:00,SystemResetWarning,0830.4,5.01,000.00,029.9,024.8,000.0,038.2,031.1,32.9,0001.6,0019.62,0009.97,0008.85
2023-06-21 21:56:00,SystemResetWarning,0830.4,4.97,000.00,029.8,025.1,000.0,038.2,030.8,34.6,0001.6,0020.58,0010.00,0008.85
2023-06-21 21:57:00,SystemResetWarning,0830.7,5.04,000.00,029.8,025.6,000.0,038.2,030.9,34.6,0001.5,0020.45,0010.02,0008.85
2023-06-21 21:58:00,SystemResetWarning,0830.6,4.97,000.00,029.9,026.1,000.0,038.2,031.1,32.5,0001.2,0019.41,0010.04,0008.87
2023-06-21 21:59:00,SystemResetWarning,0830.6,5.01,000.00,030.0,026.6,000.0,038.2,031.2,31.7,0001.0,0018.84,0010.07,0008.91
